FW4302 Weather Reports


time (UTC)temp
C
wind
direction
speed
KPH
gust
KPH
rain 1hr
cm
rain 24hr
cm
rain mn
cm
humidity
%
barometer
mb
20260507160005 13 121 8.0 14.5 0.00 0.00 0.00 66 1014.3
20260507154501 13 86 3.2 14.5 0.00 0.00 0.00 68 1014.3
20260507153101 12 93 8.0 14.5 0.00 0.00 0.00 68 1014.4
20260507151603 12 25 1.6 6.4 0.00 0.00 0.00 69 1014.7
20260507150054 12 151 4.8 14.5 0.00 0.00 0.00 71 1014.4
20260507144600 11 123 3.2 11.3 0.00 0.00 0.00 74 1014.0
20260507143058 11 122 1.6 11.3 0.00 0.00 0.00 76 1014.0
20260507141554 10 136 1.6 9.7 0.00 0.00 0.00 77 1013.7
20260507140043 8 75 1.6 3.2 0.00 0.00 0.00 90 1013.5
20260507134544 6 298 0.0 3.2 0.00 0.00 0.00 91 1013.5
20260507133107 6 297 1.6 4.8 0.00 0.00 0.00 91 1013.3
20260507131544 6 279 1.6 4.8 0.00 0.00 0.00 92 1013.2
20260507130045 5 279 1.6 4.8 0.00 0.00 0.00 92 1013.0
20260507124535 5 260 1.6 4.8 0.00 0.00 0.00 92 1012.9
20260507123039 5 260 1.6 4.8 0.00 0.00 0.00 92 1012.7
20260507121533 6 287 0.0 0.0 0.00 0.00 0.00 92 1012.4
20260507120033 6 287 0.0 4.8 0.00 0.00 0.00 91 1012.4
20260507114527 6 287 3.2 4.8 0.00 0.00 0.00 91 1012.1
20260507113024 6 287 1.6 3.2 0.00 0.00 0.00 90 1012.0
20260507111522 6 287 1.6 4.8 0.00 0.00 0.00 90 1011.9
20260507110020 7 287 1.6 4.8 0.00 0.00 0.00 90 1011.6
20260507104518 6 287 3.2 4.8 0.00 0.00 0.00 90 1011.4
20260507103014 7 298 1.6 3.2 0.00 0.00 0.00 89 1011.2
20260507101512 7 296 1.6 3.2 0.00 0.00 0.00 89 1011.2
20260507100010 7 296 1.6 4.8 0.00 0.00 0.00 88 1011.1
20260507094508 7 296 1.6 4.8 0.00 0.00 0.00 88 1010.8
20260507093005 8 296 1.6 4.8 0.00 0.00 0.00 87 1010.6
20260507091504 8 296 1.6 4.8 0.00 0.00 0.00 86 1010.4
20260507090106 8 296 3.2 4.8 0.00 0.00 0.00 86 1010.1
20260507084600 8 296 1.6 4.8 0.00 0.00 0.00 86 1010.0
20260507083055 9 296 3.2 4.8 0.00 0.00 0.00 85 1009.9
20260507081554 9 296 1.6 3.2 0.00 0.00 0.00 85 1009.7
20260507080051 9 296 1.6 4.8 0.00 0.00 0.00 84 1009.4
20260507074552 10 296 3.2 4.8 0.00 0.00 0.00 84 1009.3
20260507073052 10 296 3.2 4.8 0.00 0.00 0.00 83 1009.3
20260507071544 10 292 3.2 4.8 0.00 0.00 0.00 84 1009.2
20260507070050 10 321 1.6 4.8 0.00 0.00 0.00 84 1008.9
20260507064548 10 321 0.0 3.2 0.00 0.00 0.00 84 1008.7
20260507063039 11 321 1.6 4.8 0.00 0.00 0.00 81 1008.6
20260507061539 11 321 0.0 4.8 0.00 0.00 0.00 81 1008.6
20260507060044 12 321 1.6 6.4 0.00 0.00 0.00 80 1008.4
20260507054538 12 288 1.6 4.8 0.00 0.00 0.00 79 1008.4
20260507053037 13 288 3.2 4.8 0.00 0.00 0.00 76 1008.7
20260507051536 13 288 1.6 4.8 0.00 0.00 0.00 74 1008.7
20260507050037 15 295 0.0 0.0 0.00 0.00 0.00 70 1008.7
20260507044547 14 296 1.6 4.8 0.00 0.00 0.00 70 1008.7
20260507043034 16 74 0.0 3.2 0.00 0.00 0.00 65 1008.6
20260507041533 17 74 0.0 4.8 0.00 0.00 0.00 61 1008.5
20260507040041 17 29 0.0 6.4 0.00 0.00 0.00 61 1008.2
20260507034541 17 297 0.0 4.8 0.00 0.00 0.00 59 1008.3
20260507033045 18 255 0.0 8.0 0.00 0.00 0.00 57 1008.2
20260507031545 18 360 1.6 4.8 0.00 0.00 0.00 57 1008.2
20260507030032 19 25 0.0 4.8 0.00 0.00 0.00 55 1008.4
20260507024529 19 128 0.0 6.4 0.00 0.00 0.00 55 1008.3
20260507023028 20 298 0.0 6.4 0.00 0.00 0.00 52 1008.5
20260507021526 20 74 1.6 4.8 0.00 0.00 0.00 49 1008.6
20260507020026 21 136 0.0 16.1 0.00 0.00 0.00 49 1008.8
20260507014532 21 286 1.6 12.9 0.00 0.00 0.00 50 1008.7
20260507013033 21 261 0.0 6.4 0.00 0.00 0.00 51 1008.8
20260507011531 21 129 0.0 8.0 0.00 0.00 0.00 46 1009.0
20260507010022 22 26 0.0 9.7 0.00 0.00 0.00 45 1009.3
20260507004519 22 55 3.2 14.5 0.00 0.00 0.00 44 1009.4
20260507003019 22 345 1.6 6.4 0.00 0.00 0.00 45 1009.6
20260507001525 22 205 1.6 9.7 0.00 0.00 0.00 45 1009.4
20260507000019 23 65 1.6 14.5 0.00 0.00 0.00 46 1009.6
20260506234516 23 211 3.2 9.7 0.00 0.00 0.00 44 1009.6
20260506233015 23 321 4.8 12.9 0.00 0.00 0.00 44 1009.7
20260506231514 23 22 1.6 9.7 0.00 0.00 0.00 47 1009.7
20260506230012 23 265 4.8 19.3 0.00 0.00 0.00 46 1010.1
20260506224511 23 340 4.8 16.1 0.00 0.00 0.00 44 1010.2
20260506223015 23 312 6.4 20.9 0.00 0.00 0.00 43 1010.4
20260506221508 24 315 6.4 19.3 0.00 0.00 0.00 38 1010.6
20260506220008 24 21 6.4 19.3 0.00 0.00 0.00 39 1010.6
20260506214505 25 121 4.8 12.9 0.00 0.00 0.00 42 1010.6
20260506213002 23 151 4.8 12.9 0.00 0.00 0.00 44 1010.8
20260506211600 23 137 3.2 12.9 0.00 0.00 0.00 46 1010.8
20260506210058 23 294 6.4 17.7 0.00 0.00 0.00 44 1011.1
20260506204556 22 225 8.0 20.9 0.00 0.00 0.00 44 1011.4
20260506203053 22 153 6.4 16.1 0.00 0.00 0.00 45 1011.7
20260506201555 22 104 3.2 20.9 0.00 0.00 0.00 44 1011.7
20260506200049 22 132 4.8 20.9 0.00 0.00 0.00 44 1012.0
20260506194548 21 227 8.0 14.5 0.00 0.00 0.00 43 1012.2
20260506193045 21 167 8.0 17.7 0.00 0.00 0.00 42 1012.4
20260506191541 20 121 4.8 11.3 0.00 0.00 0.00 43 1012.7
20260506190042 20 139 6.4 12.9 0.00 0.00 0.00 44 1012.9
20260506184546 19 98 4.8 11.3 0.00 0.00 0.00 44 1013.1
20260506183036 18 167 6.4 11.3 0.00 0.00 0.00 44 1013.2
20260506181534 18 119 1.6 12.9 0.00 0.00 0.00 44 1013.2
20260506180035 18 171 3.2 11.3 0.00 0.00 0.00 44 1013.4
20260506174532 17 141 6.4 16.1 0.00 0.00 0.00 43 1013.5
20260506173035 16 137 3.2 16.1 0.00 0.00 0.00 44 1013.7
20260506171528 16 87 3.2 11.3 0.00 0.00 0.00 45 1014.0
20260506170025 15 146 3.2 6.4 0.00 0.00 0.00 46 1014.1
20260506164523 15 153 1.6 11.3 0.00 0.00 0.00 49 1014.3
20260506163026 14 129 4.8 11.3 0.00 0.00 0.00 48 1014.3
20260506161519 14 111 3.2 11.3 0.00 0.00 0.00 49 1014.3